Location: Petruro
(41.0333°N, 14.7833°E)
Time: 21:36:50
(UTC+00:00)

CZ-4C R/B - Pass Details

Date: 20 October 2021
Orbit: 463 x 631 km, 98.0° (Epoch: 27 November)

Event Time Altitude Azimuth Distance (km) Brightness Sun altitude
Rises 16:38:07 0° 351° (N) 2,837 7.0 -5.5°
Reaches altitude 10° 16:41:21 10° 323° (NW) 1,962 6.5 -6.1°
Maximum altitude 16:43:17 13° 296° (WNW) 1,786 6.8 -6.5°
Drops below altitude 10° 16:45:14 10° 270° (W) 1,986 7.9 -6.9°
Sets 16:48:33 0° 242° (WSW) 2,905 8.6 -7.5°
